Regional Weather Roundup
Issued by NWS

Home | Current Version | Previous Version | Graphics & Text | Print | Product List | Glossary On
Versions: 1 2 3 4 5 6 7 8 9 10 11 12 13 14 15 16 17 18 19 20 21 22 23 24 25 26 27 28 29 30 31 32 33 34 35 36 37 38 39 40 41 42 43 44 45 46 47 48 49 50
421
ASUS43 KIND 131909
RWRIN

WEATHER ROUNDUP FOR INDIANA
NATIONAL WEATHER SERVICE INDIANAPOLIS IN
200 PM EST SAT FEB 13 2016

NOTE: "FAIR" INDICATES FEW OR NO CLOUDS BELOW 12,000 FEET WITH NO
SIGNIFICANT WEATHER AND/OR OBSTRUCTIONS TO VISIBILITY.

* - STATION DOES NOT REPORT WEATHER SUCH AS PRECIPITATION OR FOG.

+ - STATION NOT QUALITY CONTROLLED BY THE NATIONAL WEATHER SERVICE.
    USE DATA WITH CAUTION...ESPECIALLY DEWPOINT AND RELATIVE
    HUMIDITY OBSERVATIONS.

INZ001>003-010>013-019-020-132000-
NORTHWEST INDIANA

CITY           SKY/WX    TMP DP  RH WIND       PRES   REMARKS
GARY /AIRPORT/ MOSUNNY   18 -11  27 NW9G21    30.57F WCI   6
KNOX *+        PTSUNNY   12   0  57 NW12      30.55F WCI  -2
LA PORTE +     LGT SNOW  15   7  70 NW12G17   30.54F WCI   1
MICHIGAN CITY+ CLOUDY    14   3  62 NW10      30.55F WCI   1
MONTICELLO +   SUNNY     16 -10  29 W8G21     30.55F WCI   6
RENSSELAER +   SUNNY     18 -13  25 W7        30.56F WCI   8
VALPARAISO     MOSUNNY   14  -1  51 NW10      30.55F WCI   1

$$

LMZ046-743>745-132000-
SOUTHERN LAKE MICHIGAN

STATION/POSITION TIME  TEMP    WIND        PRES    WAVE
                       AIR SEA DIR/SP/G            HT
                 (UTC) (F)     (DEG/KT/KT) (MB)    (FT)
BURNS HARBOR     1800   11     330/  8/ 16 1035.9S
MICHIGAN CITY    1800   12     270/ 17/ 19   N/A

$$

INZ004-005-014>016-021>024-132000-
NORTH CENTRAL INDIANA

CITY           SKY/WX    TMP DP  RH WIND       PRES   REMARKS
ELKHART        LGT SNOW N/A N/A N/A MISG      30.50F
GOSHEN         LGT SNOW  14   7  73 W17       30.49S WCI  -3
LOGANSPORT +   SUNNY     18  -6  35 W8        30.55F WCI   7
PERU/GRISSOM   PTSUNNY   16   2  53 NW8       30.51F WCI   5
ROCHESTER +    MOSUNNY   18  -4  38 W13       30.53F WCI   4
SOUTH BEND     SNOW      12   6  77 NW16      30.52S VSB 1/2 WCI  -5
WARSAW +       MOSUNNY   16   7  67 W18       30.50F WCI  -1

$$

INZ006>009-017-018-025>027-132000-
NORTHEAST INDIANA

CITY           SKY/WX    TMP DP  RH WIND       PRES   REMARKS
ANGOLA *+      MOSUNNY   16   3  57 NW13      30.43F WCI   2
AUBURN +       CLOUDY    18   5  57 W14G22    30.47F WCI   4
FORT WAYNE     CLOUDY    14   5  67 W20       30.50F WCI  -3
HUNTINGTON +   PTSUNNY   15  -1  49 W13G21    30.51F WCI   1

$$

INZ028-029-035-036-043>045-051>053-132000-
WEST CENTRAL INDIANA

CITY           SKY/WX    TMP DP  RH WIND       PRES   REMARKS
CRAWFORDSVL +  SUNNY     14  -8  38 W6        30.56S WCI   5
GREENCASTLE +  SUNNY     18 -15  23 NW6       30.55F WCI   9
LAFAYETTE      SUNNY     17  -6  35 N7        30.57F WCI   8
TERRE HAUTE    SUNNY     18  -4  37 NW8       30.58F WCI   8

$$

INZ030>032-037>040-046>048-054>057-064-065-132000-
CENTRAL INDIANA

CITY           SKY/WX    TMP DP  RH WIND       PRES   REMARKS
ANDERSON       PTSUNNY   16   1  53 NW12G23   30.53F WCI   3
FISHERS *+     SUNNY     18   1  49 W12       30.54F WCI   5
FRANKFORT +    SUNNY     19 -20  17 NW8       30.55F WCI   8
GREENWOOD *+   SUNNY     19   3  49 NW6       30.53F WCI  11
INDIANAPOLIS   MOSUNNY   18  -5  36 NW7       30.53F WCI   9
-EAGLE CREEK   SUNNY     18  -4  37 NW12G17   30.53F WCI   5
KOKOMO *+      CLOUDY    18   3  53 NW15      30.53S WCI   3
MARION +       PTSUNNY   15  -5  41 NW14      30.53S WCI   0
MT COMFORT *+  MOSUNNY   19   0  42 W9        30.52F WCI   9
SHELBYVILLE    MOSUNNY   18   1  47 NW8       30.53F WCI   8
ZIONSVILLE +   SUNNY     17  -1  45 NW9       30.53S WCI   5

$$

INZ033-034-041-042-049-050-058-059-132000-
EAST CENTRAL INDIANA

CITY           SKY/WX    TMP DP  RH WIND       PRES   REMARKS
MUNCIE         CLOUDY    15   1  53 NW14      30.51F WCI   0

$$

INZ060-061-067>069-081>083-085>088-132000-
SOUTHWEST INDIANA

CITY           SKY/WX    TMP DP  RH WIND       PRES   REMARKS
EVANSVILLE     SUNNY     25   2  37 N12       30.60F WCI  14
HUNTINGBURG *+ SUNNY     23   1  39 NW8       30.57F WCI  14
WASHINGTON +   SUNNY     21  -6  30 N7        30.58F WCI  12

$$

INZ062-063-066-070>080-084-089>092-132000-
SOUTH CENTRAL AND SOUTHEAST INDIANA

CITY           SKY/WX    TMP DP  RH WIND       PRES   REMARKS
BEDFORD +      SUNNY     21   0  39 NW7       30.53F WCI  13
BLOOMINGTON    SUNNY     19  -3  38 VRB5      30.53F WCI  12
MADISON *+     SUNNY     21   3  45 NW7       30.54F WCI  13
NORTH VERNON + SUNNY     19   1  45 NW9       30.53F WCI   9
SEYMOUR +      SUNNY     25   1  36 N9        30.55F WCI  15

$$





USA.gov is the U.S. government's official web portal to all federal, state and local government web resources and services.